| time (UTC) | temp F | wind direction | speed knots | gust knots | rain 1hr in | rain 24hr in | rain mn in | humidity % | barometer mb |
| 20260504221520 | 78 | 175 | 4.3 | 6.1 | 0.00 | 0.00 | 0.00 | 38 | 1016.5 |
| 20260504220528 | 79 | 159 | 4.3 | 7.8 | 0.00 | 0.00 | 0.00 | 39 | 1016.5 |
| 20260504215537 | 79 | 252 | 3.5 | 5.2 | 0.00 | 0.00 | 0.00 | 40 | 1016.3 |
| 20260504214526 | 79 | 214 | 3.5 | 5.2 | 0.00 | 0.00 | 0.00 | 40 | 1016.4 |
| 20260504213535 | 79 | 170 | 3.5 | 6.1 | 0.00 | 0.00 | 0.00 | 39 | 1016.4 |
| 20260504212543 | 80 | 171 | 5.2 | 7.8 | 0.00 | 0.00 | 0.00 | 37 | 1016.5 |
| 20260504211530 | 80 | 176 | 3.5 | 4.3 | 0.00 | 0.00 | 0.00 | 36 | 1016.7 |
| 20260504210520 | 80 | 177 | 3.5 | 7.0 | 0.00 | 0.00 | 0.00 | 35 | 1016.5 |
| 20260504205529 | 80 | 159 | 4.3 | 7.0 | 0.00 | 0.00 | 0.00 | 35 | 1016.6 |
| 20260504204537 | 80 | 152 | 3.5 | 6.1 | 0.00 | 0.00 | 0.00 | 35 | 1016.9 |
| 20260504203525 | 80 | 152 | 5.2 | 9.6 | 0.00 | 0.00 | 0.00 | 36 | 1017.0 |
| 20260504202554 | 80 | 172 | 3.5 | 7.0 | 0.00 | 0.00 | 0.00 | 36 | 1017.1 |
| 20260504201523 | 80 | 144 | 5.2 | 8.7 | 0.00 | 0.00 | 0.00 | 35 | 1017.4 |
| 20260504200531 | 80 | 163 | 4.3 | 7.0 | 0.00 | 0.00 | 0.00 | 36 | 1017.5 |
| 20260504195521 | 80 | 172 | 5.2 | 7.0 | 0.00 | 0.00 | 0.00 | 36 | 1017.8 |
| 20260504194528 | 80 | 172 | 5.2 | 9.6 | 0.00 | 0.00 | 0.00 | 35 | 1017.9 |
| 20260504193536 | 81 | 183 | 3.5 | 5.2 | 0.00 | 0.00 | 0.00 | 36 | 1017.9 |
| 20260504192525 | 80 | 191 | 4.3 | 7.8 | 0.00 | 0.00 | 0.00 | 38 | 1018.1 |
| 20260504191535 | 81 | 156 | 5.2 | 7.0 | 0.00 | 0.00 | 0.00 | 37 | 1018.0 |
| 20260504190523 | 81 | 219 | 4.3 | 7.0 | 0.00 | 0.00 | 0.00 | 37 | 1018.1 |
| 20260504185531 | 81 | 209 | 3.5 | 6.1 | 0.00 | 0.00 | 0.00 | 38 | 1018.3 |
| 20260504184520 | 81 | 142 | 4.3 | 7.0 | 0.00 | 0.00 | 0.00 | 38 | 1018.4 |
| 20260504183528 | 82 | 197 | 5.2 | 7.8 | 0.00 | 0.00 | 0.00 | 37 | 1018.6 |
| 20260504182556 | 81 | 159 | 2.6 | 4.3 | 0.00 | 0.00 | 0.00 | 37 | 1018.5 |
| 20260504181546 | 81 | 172 | 3.5 | 6.1 | 0.00 | 0.00 | 0.00 | 37 | 1018.5 |
| 20260504180535 | 80 | 181 | 3.5 | 6.1 | 0.00 | 0.00 | 0.00 | 36 | 1018.6 |
| 20260504175522 | 81 | 193 | 4.3 | 7.0 | 0.00 | 0.00 | 0.00 | 35 | 1018.6 |
| 20260504174531 | 80 | 195 | 3.5 | 6.1 | 0.00 | 0.00 | 0.00 | 36 | 1018.9 |
| 20260504173541 | 81 | 157 | 3.5 | 8.7 | 0.00 | 0.00 | 0.00 | 36 | 1018.9 |
| 20260504172528 | 81 | 174 | 3.5 | 6.1 | 0.00 | 0.00 | 0.00 | 35 | 1018.8 |
| 20260504171539 | 80 | 136 | 3.5 | 7.0 | 0.00 | 0.00 | 0.00 | 36 | 1019.0 |
| 20260504170525 | 79 | 160 | 4.3 | 6.1 | 0.00 | 0.00 | 0.00 | 37 | 1018.8 |
| 20260504150528 | 76 | 203 | 0.0 | 0.9 | 0.00 | 0.00 | 0.00 | 46 | 1019.6 |
| 20260504140521 | 77 | 30 | 0.0 | 1.7 | 0.00 | 0.00 | 0.00 | 50 | 1019.7 |
| 20260504130533 | 63 | 0.0 | 0.0 | 0.00 | 0.00 | 0.00 | 72 | 1019.8 | |
| 20260504110535 | 55 | 0.0 | 0.0 | 0.00 | 0.00 | 0.00 | 82 | 1019.0 | |
| 20260504100548 | 57 | 0.0 | 0.0 | 0.00 | 0.00 | 0.00 | 79 | 1019.2 | |
| 20260504081523 | 57 | 0.0 | 0.0 | 0.00 | 0.00 | 0.00 | 79 | 1019.0 | |
| 20260504080534 | 58 | 0.0 | 0.0 | 0.00 | 0.00 | 0.00 | 76 | 1019.1 | |
| 20260504050527 | 63 | 113 | 0.0 | 0.9 | 0.00 | 0.00 | 0.00 | 69 | 1020.7 |
| 20260504045535 | 63 | 0.0 | 1.7 | 0.00 | 0.00 | 0.00 | 69 | 1020.7 | |
| 20260504044524 | 64 | 158 | 0.0 | 1.7 | 0.00 | 0.00 | 0.00 | 68 | 1020.8 |
| 20260504043532 | 64 | 167 | 0.0 | 1.7 | 0.00 | 0.00 | 0.00 | 67 | 1021.0 |
| 20260504042521 | 64 | 168 | 0.9 | 1.7 | 0.00 | 0.00 | 0.00 | 66 | 1021.0 |
| 20260504041530 | 64 | 209 | 0.9 | 2.6 | 0.00 | 0.00 | 0.00 | 63 | 1021.0 |
| 20260504040618 | 65 | 135 | 0.0 | 1.7 | 0.00 | 0.00 | 0.00 | 61 | 1020.9 |
| 20260504035528 | 66 | 136 | 0.9 | 2.6 | 0.00 | 0.00 | 0.00 | 59 | 1020.7 |
| 20260504034557 | 66 | 144 | 1.7 | 2.6 | 0.00 | 0.00 | 0.00 | 58 | 1020.8 |
| 20260504033524 | 66 | 149 | 0.9 | 1.7 | 0.00 | 0.00 | 0.00 | 57 | 1020.8 |
| 20260504032533 | 66 | 0.0 | 0.0 | 0.00 | 0.00 | 0.00 | 56 | 1020.9 | |
| 20260504031521 | 67 | 143 | 0.9 | 2.6 | 0.00 | 0.00 | 0.00 | 55 | 1020.9 |
| 20260504030550 | 67 | 159 | 1.7 | 3.5 | 0.00 | 0.00 | 0.00 | 55 | 1020.9 |
| 20260504025520 | 66 | 0.0 | 0.0 | 0.00 | 0.00 | 0.00 | 55 | 1020.8 | |
| 20260504024527 | 67 | 161 | 0.9 | 2.6 | 0.00 | 0.00 | 0.00 | 53 | 1020.6 |
| 20260504023535 | 66 | 0.0 | 0.0 | 0.00 | 0.00 | 0.00 | 53 | 1020.6 | |
| 20260504022524 | 66 | 142 | 0.9 | 2.6 | 0.00 | 0.00 | 0.00 | 53 | 1020.5 |
| 20260504021533 | 66 | 0.0 | 0.0 | 0.00 | 0.00 | 0.00 | 55 | 1020.5 | |
| 20260504020525 | 67 | 0.0 | 0.0 | 0.00 | 0.00 | 0.00 | 55 | 1020.3 | |
| 20260504015530 | 66 | 158 | 0.9 | 2.6 | 0.00 | 0.00 | 0.00 | 60 | 1020.2 |
| 20260504014519 | 66 | 0.0 | 0.0 | 0.00 | 0.00 | 0.00 | 59 | 1020.0 | |
| 20260504013527 | 67 | 0.0 | 0.0 | 0.00 | 0.00 | 0.00 | 59 | 1020.0 | |
| 20260504012537 | 67 | 0.0 | 0.9 | 0.00 | 0.00 | 0.00 | 59 | 1020.0 | |
| 20260504011527 | 68 | 0.0 | 0.0 | 0.00 | 0.00 | 0.00 | 54 | 1019.8 | |
| 20260504010533 | 69 | 0.0 | 0.0 | 0.00 | 0.00 | 0.00 | 51 | 1019.8 | |
| 20260504005605 | 70 | 0.0 | 0.0 | 0.00 | 0.00 | 0.00 | 46 | 1019.7 | |
| 20260504004531 | 71 | 0.0 | 0.0 | 0.00 | 0.00 | 0.00 | 44 | 1019.7 | |
| 20260504003541 | 72 | 0.0 | 0.0 | 0.00 | 0.00 | 0.00 | 42 | 1019.7 | |
| 20260504002528 | 73 | 57 | 0.9 | 2.6 | 0.00 | 0.00 | 0.00 | 41 | 1019.6 |
| 20260504001616 | 74 | 339 | 0.0 | 1.7 | 0.00 | 0.00 | 0.00 | 40 | 1019.5 |
| 20260504000525 | 76 | 51 | 0.9 | 2.6 | 0.00 | 0.00 | 0.00 | 39 | 1019.5 |
| 20260503235553 | 78 | 178 | 0.9 | 2.6 | 0.00 | 0.00 | 0.00 | 37 | 1019.6 |
| 20260503234523 | 80 | 13 | 0.9 | 2.6 | 0.00 | 0.00 | 0.00 | 35 | 1019.6 |
| 20260503233532 | 83 | 301 | 0.9 | 3.5 | 0.00 | 0.00 | 0.00 | 32 | 1019.7 |
| 20260503232521 | 83 | 292 | 0.0 | 1.7 | 0.00 | 0.00 | 0.00 | 32 | 1019.8 |
| 20260503231550 | 83 | 312 | 0.9 | 2.6 | 0.00 | 0.00 | 0.00 | 31 | 1019.8 |
| 20260503230536 | 83 | 325 | 1.7 | 3.5 | 0.00 | 0.00 | 0.00 | 32 | 1019.9 |
| 20260503225526 | 79 | 334 | 1.7 | 4.3 | 0.00 | 0.00 | 0.00 | 35 | 1019.9 |
| 20260503224534 | 79 | 331 | 2.6 | 3.5 | 0.00 | 0.00 | 0.00 | 34 | 1020.0 |
| 20260503223523 | 79 | 357 | 2.6 | 4.3 | 0.00 | 0.00 | 0.00 | 35 | 1020.0 |
| 20260503222532 | 80 | 291 | 1.7 | 2.6 | 0.00 | 0.00 | 0.00 | 35 | 1020.0 |